Locatie 51° 56′ 37″.87 NB – 05° 58’47”.70 OL

We konden geen weer-waarchuwingen ophalen. Ga rechtstreeks naar de Meteoalarm site : www.meteoalarm.eu en controleer daar .


Webcam1-NNO Meer informatie Webcam1-NNO


Webcam2-ZZO Meer informatie Webcam2-ZZO


Bezoek ook deze websites:

Template documentatie
en downloads

Weer Sluispark Leuven

Allesoversterrenkunde.nl

Luchtkwaliteit Beekenoord



Select another period ( hide this area )

Eenheden Periode Custom range Directly to
Metrisch Engels Beide
Dagelijkse Wekelijkse Maandelijkse Jaarlijkse
use both date-selectors for a custom range
previous Dag
With this date

WeatherUnderground graphs for this period ( click here )


Dagelijkse Samenvatting Vrijdag 19 augustus 2022
Tijd Temp. ( °C ) Dew pt. ( °C ) Wind ( km/h ) van Windvlaag ( km/h ) Luchtdruk ( hPa ) Humid.( % ) Rainrate ( cm ) Zonneschijn ( W/m2 )
Hoog24,3 18,9 6,4 NNW ( 22/33 ) 9,7 1013,5 96 - 749
Gemiddeld18,9 16,9 0,2 Kalm #148/156 0,5 1012,7 89 - 372 #77/156
Laag16,0 15,2 -   0,0 1012,2 70 -  
Dagelijkse Tabular details for Vrijdag 19 augustus 2022
Tijd Temp. ( °C ) Dew pt. ( °C ) Wind ( km/h ) van Windvlaag ( km/h ) Luchtdruk ( hPa ) Humid.( % ) Rainrate ( cm ) Zonneschijn ( W/m2 )
00:03 18,9 17,0   Kalm   1012,5 89 - -
00:08 18,9 17,0   Kalm   1012,2 89 - -
00:13 18,9 17,0   Kalm   1012,2 89 - -
00:18 18,8 16,9   Kalm   1012,2 89 - -
00:23 18,8 16,9   Kalm   1012,2 89 - -
00:28 18,8 16,9   Kalm   1012,2 89 - -
00:33 18,7 16,8   Kalm   1012,2 89 - -
00:38 18,7 17,0   Kalm   1012,5 90 - -
00:43 18,6 16,9   Kalm   1012,5 90 - -
00:48 18,6 16,9   Kalm   1012,5 90 - -
00:53 18,6 16,9   Kalm   1012,5 90 - -
00:58 18,5 16,8   Kalm   1012,5 90 - -
01:03 18,5 16,8   Kalm   1012,5 90 - -
01:08 18,4 16,9   Kalm   1012,5 91 - -
01:13 18,4 16,9   Kalm   1012,5 91 - -
01:18 18,3 16,8   Kalm   1012,5 91 - -
01:23 18,3 16,8   Kalm   1012,5 91 - -
01:28 18,2 16,7   Kalm   1012,5 91 - -
01:33 18,1 16,6   Kalm   1012,5 91 - -
01:38 18,0 16,5   Kalm   1012,5 91 - -
01:43 17,9 16,4   Kalm   1012,5 91 - -
01:48 17,9 16,4   Kalm   1012,2 91 - -
01:53 17,8 16,3   Kalm   1012,5 91 - -
01:58 17,8 16,5   Kalm   1012,5 92 - -
02:03 17,8 16,5   Kalm   1012,2 92 - -
02:08 17,8 16,5   Kalm   1012,2 92 - -
02:13 17,8 16,5   Kalm   1012,2 92 - -
02:18 17,8 16,7   Kalm   1012,2 93 - -
02:23 17,9 16,8   Kalm   1012,2 93 - -
02:28 18,0 16,9   Kalm   1012,2 93 - -
02:33 18,0 16,9   Kalm   1012,2 93 - -
02:38 17,9 16,6   Kalm   1012,2 92 - -
02:43 17,9 16,6   Kalm   1012,2 92 - -
02:48 17,9 16,6   Kalm   1012,2 92 - -
02:53 17,8 16,7   Kalm   1012,2 93 - -
02:58 17,8 16,7   Kalm   1012,2 93 - -
03:03 17,7 16,6   Kalm   1012,5 93 - -
03:08 17,7 16,6   Kalm   1012,5 93 - -
03:13 17,7 16,6   Kalm   1012,2 93 - -
03:18 17,6 16,5   Kalm   1012,2 93 - -
03:23 17,6 16,5   Kalm   1012,5 93 - -
03:28 17,5 16,4   Kalm   1012,5 93 - -
03:33 17,4 16,3   Kalm   1012,5 93 - -
03:38 17,4 16,4   Kalm   1012,2 94 - -
03:43 17,4 16,4   Kalm   1012,2 94 - -
03:48 17,3 16,3   Kalm   1012,5 94 - -
03:53 17,3 16,3   Kalm   1012,5 94 - -
03:58 17,3 16,3   Kalm   1012,5 94 - -
04:03 17,3 16,3   Kalm   1012,5 94 - -
04:08 17,4 16,4   Kalm   1012,5 94 - -
04:13 17,4 16,4   Kalm   1012,5 94 - -
04:18 17,4 16,4   Kalm   1012,5 94 - -
04:23 17,4 16,4   Kalm   1012,5 94 - -
04:28 17,4 16,4   Kalm   1012,5 94 - -
04:33 17,4 16,4   Kalm   1012,5 94 - -
04:38 17,4 16,3   Kalm   1012,5 93 - -
04:43 17,4 16,3   Kalm   1012,5 93 - -
04:48 17,4 16,3   Kalm   1012,5 93 - -
04:53 17,3 16,2   Kalm   1012,5 93 - -
04:58 17,3 16,2   Kalm   1012,5 93 - -
05:03 17,2 16,1   Kalm   1012,5 93 - -
05:08 17,1 16,0   Kalm   1012,5 93 - -
05:13 17,0 15,9   Kalm   1012,5 93 - -
05:18 16,9 15,8   Kalm   1012,5 93 - -
05:24 16,9 15,8   Kalm   1012,5 93 - -
05:29 16,8 15,7   Kalm   1012,5 93 - -
05:34 16,8 15,7   Kalm   1012,5 93 - -
05:39 16,7 15,7   Kalm   1012,5 94 - -
05:44 16,7 15,7   Kalm   1012,5 94 - -
05:49 16,7 15,7   Kalm   1012,5 94 - -
05:54 16,6 15,6   Kalm   1012,5 94 - -
05:59 16,6 15,6   Kalm   1012,5 94 - -
06:04 16,4 15,4   Kalm   1012,5 94 - -
06:09 16,3 15,3   Kalm   1012,5 94 - -
06:14 16,3 15,5   Kalm   1012,5 95 - -
06:19 16,3 15,3   Kalm   1012,5 94 - -
06:24 16,2 15,4   Kalm   1012,5 95 - -
06:29 16,2 15,4   Kalm   1012,5 95 - -
06:34 16,2 15,4   Kalm   1012,5 95 - -
06:39 16,1 15,3   Kalm   1012,2 95 - 5
06:44 16,1 15,3   Kalm   1012,2 95 - 7
06:49 16,2 15,4   Kalm   1012,2 95 - 9
06:54 16,2 15,4   Kalm   1012,2 95 - 11
06:59 16,1 15,3   Kalm   1012,5 95 - 14
07:04 16,1 15,3   Kalm   1012,2 95 - 18
07:09 16,1 15,3   Kalm   1012,5 95 - 16
07:14 16,1 15,3   Kalm   1012,5 95 - 21
07:19 16,0 15,2   Kalm   1012,5 95 - 23
07:24 16,0 15,2   Kalm   1012,5 95 - 30
07:29 16,1 15,3   Kalm   1012,5 95 - 35
07:34 16,2 15,6   Kalm   1012,5 96 - 42
07:39 16,2 15,6   Kalm   1012,5 96 - 86
07:44 16,4 15,8   Kalm   1012,5 96 - 97
07:49 16,7 16,1   Kalm   1012,5 96 - 105
07:54 16,9 16,3   Kalm   1012,5 96 - 107
07:59 17,1 16,5   Kalm   1012,5 96 - 109
08:04 17,3 16,7   Kalm   1012,5 96 - 118
08:09 17,6 16,8   Kalm   1012,5 95 - 146
08:14 17,8 17,0   Kalm   1012,5 95 - 142
08:19 18,0 17,2   Kalm   1012,5 95 - 162
08:24 18,2 17,4   Kalm   1012,5 95 - 163
08:29 18,3 17,5   Kalm   1012,5 95 - 174
08:34 18,5 17,5   Kalm   1012,9 94 - 193
08:39 18,7 17,7   Kalm   1012,9 94 - 207
08:44 18,9 17,7   Kalm   1012,9 93 - 234
08:49 19,2 18,0   Kalm   1012,9 93 - 257
08:54 19,4 18,1   Kalm   1012,9 92 - 279
08:59 19,7 18,2   Kalm   1012,9 91 - 271
09:04 19,7 18,0   Kalm   1012,9 90 - 316
09:09 19,7 18,0   Kalm   1012,5 90 - 267
09:14 19,8 18,3   Kalm   1012,9 91 - 185
09:19 19,8 18,1   Kalm   1012,9 90 - 178
09:24 19,8 18,1   Kalm   1012,9 90 - 255
09:29 19,6 17,7   Kalm   1012,9 89 - 199
09:34 19,6 17,9   Kalm   1012,9 90 - 167
09:39 19,6 17,7   Kalm   1012,9 89 - 195
09:44 19,6 17,7   Kalm   1012,9 89 - 341
09:49 19,9 18,0   Kalm   1013,2 89 - 480
09:54 20,6 18,2   Kalm   1013,2 86 - 339
09:59 20,7 18,1   Kalm   1013,2 85 - 315
10:04 21,2 18,6   Kalm   1013,2 85 - 564
10:09 20,8 18,0   Kalm   1013,2 84 - 302
10:14 20,5 17,9   Kalm   1013,2 85 - 383
10:19 20,5 17,9   Kalm   1013,2 85 - 538
10:25 21,2 18,4   Kalm   1013,2 84 - 571
10:30 21,5 18,5   Kalm   1013,5 83 - 582
10:35 22,1 18,7   Kalm   1013,5 81 - 424
10:40 22,2 18,6   Kalm   1013,5 80 - 594
10:45 22,3 18,5   Kalm   1013,5 79 - 587
10:50 22,1 18,1   Kalm   1013,5 78 - 592
10:55 22,1 17,7   Kalm   1013,5 76 - 587
11:00 22,7 18,0   Kalm   1013,5 75 - 592
11:05 22,8 17,9   Kalm   1013,5 74 - 613
11:10 22,5 17,6   Kalm 6,4 1013,5 74 - 626
11:15 22,8 17,7   Kalm   1013,2 73 - 624
11:20 23,4 18,1   Kalm   1013,2 72 - 603
11:25 23,4 18,1   Kalm   1013,2 72 - 659
11:30 23,3 17,7   Kalm   1013,2 71 - 670
11:35 23,9 18,1   Kalm   1013,2 70 - 661
11:40 23,9 18,3   Kalm   1013,2 71 - 745
11:45 24,3 18,5   Kalm   1013,2 70 - 745
11:50 24,1 18,5   Kalm   1013,2 71 - 538
11:55 23,9 18,5   Kalm   1013,2 72 - 360
12:00 23,7 18,8 6,4 NNW 8,0 1013,5 74 - 666
12:05 23,8 18,9 3,2 NNW 6,4 1013,5 74 - 747
12:10 23,5 18,8 3,2 NNW 4,8 1013,5 75 - 636
12:15 23,7 18,8   Kalm   1013,5 74 - 703
12:20 22,9 18,2 4,7 NNW 9,7 1013,5 75 - 664
12:25 23,4 18,5   Kalm 4,8 1013,5 74 - 693
12:30 23,8 18,4 4,7 NNW 8,0 1013,5 72 - 719
12:35 23,6 18,5   Kalm 8,0 1013,5 73 - 712
12:40 23,7 18,6 1,4 NW 3,2 1013,5 73 - 693
12:45 23,3 18,0 6,4 NW 9,7 1013,5 72 - 738
12:50 23,2 17,6 3,2 NW 8,0 1013,5 71 - 744
12:55 23,6 17,8   Kalm 6,4 1013,5 70 - 712
13:00 23,2 17,4   Kalm   1013,5 70 - 749
Dagelijkse Samenvatting Vrijdag 19 augustus 2022
Tijd Temp. ( °C ) Dew pt. ( °C ) Wind ( km/h ) van Windvlaag ( km/h ) Luchtdruk ( hPa ) Humid.( % ) Rainrate ( cm ) Zonneschijn ( W/m2 )
Hoog24,3 18,9 6,4 NNW ( 22/33 ) 9,7 1013,5 96 - 749
Gemiddeld18,9 16,9 0,2 Kalm #148/156 0,5 1012,7 89 - 372 #77/156
Laag16,0 15,2 -   0,0 1012,2 70 -  
Dagelijkse Tabular details for Vrijdag 19 augustus 2022
Tijd Temp. ( °C ) Dew pt. ( °C ) Wind ( km/h ) van Windvlaag ( km/h ) Luchtdruk ( hPa ) Humid.( % ) Rainrate ( cm ) Zonneschijn ( W/m2 )
00:03 18,9 17,0   Kalm   1012,5 89 - -
00:08 18,9 17,0   Kalm   1012,2 89 - -
00:13 18,9 17,0   Kalm   1012,2 89 - -
00:18 18,8 16,9   Kalm   1012,2 89 - -
00:23 18,8 16,9   Kalm   1012,2 89 - -
00:28 18,8 16,9   Kalm   1012,2 89 - -
00:33 18,7 16,8   Kalm   1012,2 89 - -
00:38 18,7 17,0   Kalm   1012,5 90 - -
00:43 18,6 16,9   Kalm   1012,5 90 - -
00:48 18,6 16,9   Kalm   1012,5 90 - -
00:53 18,6 16,9   Kalm   1012,5 90 - -
00:58 18,5 16,8   Kalm   1012,5 90 - -
01:03 18,5 16,8   Kalm   1012,5 90 - -
01:08 18,4 16,9   Kalm   1012,5 91 - -
01:13 18,4 16,9   Kalm   1012,5 91 - -
01:18 18,3 16,8   Kalm   1012,5 91 - -
01:23 18,3 16,8   Kalm   1012,5 91 - -
01:28 18,2 16,7   Kalm   1012,5 91 - -
01:33 18,1 16,6   Kalm   1012,5 91 - -
01:38 18,0 16,5   Kalm   1012,5 91 - -
01:43 17,9 16,4   Kalm   1012,5 91 - -
01:48 17,9 16,4   Kalm   1012,2 91 - -
01:53 17,8 16,3   Kalm   1012,5 91 - -
01:58 17,8 16,5   Kalm   1012,5 92 - -
02:03 17,8 16,5   Kalm   1012,2 92 - -
02:08 17,8 16,5   Kalm   1012,2 92 - -
02:13 17,8 16,5   Kalm   1012,2 92 - -
02:18 17,8 16,7   Kalm   1012,2 93 - -
02:23 17,9 16,8   Kalm   1012,2 93 - -
02:28 18,0 16,9   Kalm   1012,2 93 - -
02:33 18,0 16,9   Kalm   1012,2 93 - -
02:38 17,9 16,6   Kalm   1012,2 92 - -
02:43 17,9 16,6   Kalm   1012,2 92 - -
02:48 17,9 16,6   Kalm   1012,2 92 - -
02:53 17,8 16,7   Kalm   1012,2 93 - -
02:58 17,8 16,7   Kalm   1012,2 93 - -
03:03 17,7 16,6   Kalm   1012,5 93 - -
03:08 17,7 16,6   Kalm   1012,5 93 - -
03:13 17,7 16,6   Kalm   1012,2 93 - -
03:18 17,6 16,5   Kalm   1012,2 93 - -
03:23 17,6 16,5   Kalm   1012,5 93 - -
03:28 17,5 16,4   Kalm   1012,5 93 - -
03:33 17,4 16,3   Kalm   1012,5 93 - -
03:38 17,4 16,4   Kalm   1012,2 94 - -
03:43 17,4 16,4   Kalm   1012,2 94 - -
03:48 17,3 16,3   Kalm   1012,5 94 - -
03:53 17,3 16,3   Kalm   1012,5 94 - -
03:58 17,3 16,3   Kalm   1012,5 94 - -
04:03 17,3 16,3   Kalm   1012,5 94 - -
04:08 17,4 16,4   Kalm   1012,5 94 - -
04:13 17,4 16,4   Kalm   1012,5 94 - -
04:18 17,4 16,4   Kalm   1012,5 94 - -
04:23 17,4 16,4   Kalm   1012,5 94 - -
04:28 17,4 16,4   Kalm   1012,5 94 - -
04:33 17,4 16,4   Kalm   1012,5 94 - -
04:38 17,4 16,3   Kalm   1012,5 93 - -
04:43 17,4 16,3   Kalm   1012,5 93 - -
04:48 17,4 16,3   Kalm   1012,5 93 - -
04:53 17,3 16,2   Kalm   1012,5 93 - -
04:58 17,3 16,2   Kalm   1012,5 93 - -
05:03 17,2 16,1   Kalm   1012,5 93 - -
05:08 17,1 16,0   Kalm   1012,5 93 - -
05:13 17,0 15,9   Kalm   1012,5 93 - -
05:18 16,9 15,8   Kalm   1012,5 93 - -
05:24 16,9 15,8   Kalm   1012,5 93 - -
05:29 16,8 15,7   Kalm   1012,5 93 - -
05:34 16,8 15,7   Kalm   1012,5 93 - -
05:39 16,7 15,7   Kalm   1012,5 94 - -
05:44 16,7 15,7   Kalm   1012,5 94 - -
05:49 16,7 15,7   Kalm   1012,5 94 - -
05:54 16,6 15,6   Kalm   1012,5 94 - -
05:59 16,6 15,6   Kalm   1012,5 94 - -
06:04 16,4 15,4   Kalm   1012,5 94 - -
06:09 16,3 15,3   Kalm   1012,5 94 - -
06:14 16,3 15,5   Kalm   1012,5 95 - -
06:19 16,3 15,3   Kalm   1012,5 94 - -
06:24 16,2 15,4   Kalm   1012,5 95 - -
06:29 16,2 15,4   Kalm   1012,5 95 - -
06:34 16,2 15,4   Kalm   1012,5 95 - -
06:39 16,1 15,3   Kalm   1012,2 95 - 5
06:44 16,1 15,3   Kalm   1012,2 95 - 7
06:49 16,2 15,4   Kalm   1012,2 95 - 9
06:54 16,2 15,4   Kalm   1012,2 95 - 11
06:59 16,1 15,3   Kalm   1012,5 95 - 14
07:04 16,1 15,3   Kalm   1012,2 95 - 18
07:09 16,1 15,3   Kalm   1012,5 95 - 16
07:14 16,1 15,3   Kalm   1012,5 95 - 21
07:19 16,0 15,2   Kalm   1012,5 95 - 23
07:24 16,0 15,2   Kalm   1012,5 95 - 30
07:29 16,1 15,3   Kalm   1012,5 95 - 35
07:34 16,2 15,6   Kalm   1012,5 96 - 42
07:39 16,2 15,6   Kalm   1012,5 96 - 86
07:44 16,4 15,8   Kalm   1012,5 96 - 97
07:49 16,7 16,1   Kalm   1012,5 96 - 105
07:54 16,9 16,3   Kalm   1012,5 96 - 107
07:59 17,1 16,5   Kalm   1012,5 96 - 109
08:04 17,3 16,7   Kalm   1012,5 96 - 118
08:09 17,6 16,8   Kalm   1012,5 95 - 146
08:14 17,8 17,0   Kalm   1012,5 95 - 142
08:19 18,0 17,2   Kalm   1012,5 95 - 162
08:24 18,2 17,4   Kalm   1012,5 95 - 163
08:29 18,3 17,5   Kalm   1012,5 95 - 174
08:34 18,5 17,5   Kalm   1012,9 94 - 193
08:39 18,7 17,7   Kalm   1012,9 94 - 207
08:44 18,9 17,7   Kalm   1012,9 93 - 234
08:49 19,2 18,0   Kalm   1012,9 93 - 257
08:54 19,4 18,1   Kalm   1012,9 92 - 279
08:59 19,7 18,2   Kalm   1012,9 91 - 271
09:04 19,7 18,0   Kalm   1012,9 90 - 316
09:09 19,7 18,0   Kalm   1012,5 90 - 267
09:14 19,8 18,3   Kalm   1012,9 91 - 185
09:19 19,8 18,1   Kalm   1012,9 90 - 178
09:24 19,8 18,1   Kalm   1012,9 90 - 255
09:29 19,6 17,7   Kalm   1012,9 89 - 199
09:34 19,6 17,9   Kalm   1012,9 90 - 167
09:39 19,6 17,7   Kalm   1012,9 89 - 195
09:44 19,6 17,7   Kalm   1012,9 89 - 341
09:49 19,9 18,0   Kalm   1013,2 89 - 480
09:54 20,6 18,2   Kalm   1013,2 86 - 339
09:59 20,7 18,1   Kalm   1013,2 85 - 315
10:04 21,2 18,6   Kalm   1013,2 85 - 564
10:09 20,8 18,0   Kalm   1013,2 84 - 302
10:14 20,5 17,9   Kalm   1013,2 85 - 383
10:19 20,5 17,9   Kalm   1013,2 85 - 538
10:25 21,2 18,4   Kalm   1013,2 84 - 571
10:30 21,5 18,5   Kalm   1013,5 83 - 582
10:35 22,1 18,7   Kalm   1013,5 81 - 424
10:40 22,2 18,6   Kalm   1013,5 80 - 594
10:45 22,3 18,5   Kalm   1013,5 79 - 587
10:50 22,1 18,1   Kalm   1013,5 78 - 592
10:55 22,1 17,7   Kalm   1013,5 76 - 587
11:00 22,7 18,0   Kalm   1013,5 75 - 592
11:05 22,8 17,9   Kalm   1013,5 74 - 613
11:10 22,5 17,6   Kalm 6,4 1013,5 74 - 626
11:15 22,8 17,7   Kalm   1013,2 73 - 624
11:20 23,4 18,1   Kalm   1013,2 72 - 603
11:25 23,4 18,1   Kalm   1013,2 72 - 659
11:30 23,3 17,7   Kalm   1013,2 71 - 670
11:35 23,9 18,1   Kalm   1013,2 70 - 661
11:40 23,9 18,3   Kalm   1013,2 71 - 745
11:45 24,3 18,5   Kalm   1013,2 70 - 745
11:50 24,1 18,5   Kalm   1013,2 71 - 538
11:55 23,9 18,5   Kalm   1013,2 72 - 360
12:00 23,7 18,8 6,4 NNW 8,0 1013,5 74 - 666
12:05 23,8 18,9 3,2 NNW 6,4 1013,5 74 - 747
12:10 23,5 18,8 3,2 NNW 4,8 1013,5 75 - 636
12:15 23,7 18,8   Kalm   1013,5 74 - 703
12:20 22,9 18,2 4,7 NNW 9,7 1013,5 75 - 664
12:25 23,4 18,5   Kalm 4,8 1013,5 74 - 693
12:30 23,8 18,4 4,7 NNW 8,0 1013,5 72 - 719
12:35 23,6 18,5   Kalm 8,0 1013,5 73 - 712
12:40 23,7 18,6 1,4 NW 3,2 1013,5 73 - 693
12:45 23,3 18,0 6,4 NW 9,7 1013,5 72 - 738
12:50 23,2 17,6 3,2 NW 8,0 1013,5 71 - 744
12:55 23,6 17,8   Kalm 6,4 1013,5 70 - 712
13:00 23,2 17,4   Kalm   1013,5 70 - 749

Download your copy of this data-set  here

Our weather-data as stored at Weather Underground. Script ontwikkeld door Jim McMurry. Aangepast voor de template door Leuven-Template.eu

U vindt ons ook hier:

Het Weer Aktueel

UK Metoffice

WeatherCloud

Weather Underground-IWESTE54

BNLWN

AWEKAS

Citizen Weather Observer Program (CWOP)

HAMweather, WeatherForYou, PWS Weather

weerspecialist

Apparatuur in gebruik:

Weerstation
Davis VP2

Weercomputer
Meteobridge Nano SD

Webleverancier
Strato

Davis VP2

Meteobridge Nano SD

Strato